This demonstration page uses our WeatherBlox Daily Observations layout. Learn more.

Left ArrowRight Arrow

Hourly Observations for June 19, 2021

Temp ( °F °C ) Dew Point ( °F °C ) Humidity (%) Winds ( mph kmh ) Pressure ( in mb ) Visibility ( mi km ) Precip ( " mm )
12:15 am 00:15 Clear 69 20.7 65 18.1 85 85 NNE 6 9 29.79 1009 10 16 N/A
12:35 am 00:35 Clear 70 20.9 64 17.5 81 81 NNE 6 9 29.79 1009 10 16 N/A
12:55 am 00:55 Clear 69 20.6 63 17.2 81 81 NNE 6 9 29.79 1009 10 16 N/A
1:15 am 01:15 Clear 69 20.7 62 16.7 78 78 N 6 9 29.80 1009 10 16 N/A
1:35 am 01:35 Clear 71 21.5 62 16.4 73 73 N 6 9 29.81 1009 10 16 N/A
1:55 am 01:55 Clear 69 20.3 61 16.2 77 77 N 6 9 29.82 1010 10 16 N/A
2:15 am 02:15 Clear 69 20.6 60 15.7 74 74 NNW 7 11 29.81 1010 10 16 N/A
2:35 am 02:35 Clear 68 20.1 60 15.3 74 74 N 7 11 29.82 1010 10 16 N/A
2:55 am 02:55 Clear 68 20 59 15 73 73 N 6 9 29.82 1010 10 16 N/A
3:15 am 03:15 Clear 68 19.8 58 14.6 72 72 N 8 13 29.81 1009 10 16 N/A
3:35 am 03:35 Clear 67 19.5 58 14.4 73 73 N 9 15 29.81 1010 10 16 N/A
3:55 am 03:55 Clear 65 18.5 58 14.5 78 78 NNE 3 6 29.81 1009 10 16 N/A
4:15 am 04:15 Clear 64 17.8 58 14.3 80 80 N 7 11 29.82 1010 10 16 N/A
4:35 am 04:35 Clear 64 17.6 58 14.3 81 81 N 8 13 29.81 1009 10 16 N/A
4:55 am 04:55 Clear 64 17.8 58 14.2 80 80 N 9 15 29.81 1009 10 16 N/A
5:15 am 05:15 Clear 64 17.5 57 14 80 80 N 8 13 29.81 1009 10 16 N/A
5:35 am 05:35 Clear 64 17.5 57 13.8 79 79 N N/A 29.82 1010 10 16 N/A
5:55 am 05:55 Clear 64 17.7 56 13.6 77 77 N N/A 29.84 1010 10 16 N/A
6:15 am 06:15 Sunny 63 17.1 56 13.6 80 80 N N/A 29.84 1011 10 16 N/A
6:35 am 06:35 Sunny 64 17.6 56 13.6 78 78 NNE 8 13 29.84 1010 10 16 N/A
6:55 am 06:55 Sunny 64 17.7 57 14 79 79 NNE 7 11 29.84 1010 10 16 N/A
7:15 am 07:15 Sunny 65 18.4 56 13.4 73 73 NNE 8 13 29.83 1010 10 16 N/A
7:35 am 07:35 Sunny 66 18.7 56 13.5 72 72 NNE 9 15 29.83 1010 10 16 N/A
7:55 am 07:55 Sunny 67 19.5 55 13 66 66 NE 14 22 29.83 1010 10 16 N/A
8:15 am 08:15 Sunny 68 20 55 12.7 63 63 NNE 10 17 29.85 1011 10 16 N/A
8:35 am 08:35 Sunny 69 20.5 55 12.8 61 61 NE 15 24 29.84 1011 10 16 N/A
8:55 am 08:55 Sunny 70 20.9 55 12.7 60 60 NE 14 22 29.84 1010 10 16 N/A
9:15 am 09:15 Sunny 71 21.8 55 13 57 57 NE 14 22 29.83 1010 10 16 N/A
9:35 am 09:35 Sunny 72 22.2 54 12.2 53 53 NE 17 28 29.83 1010 10 16 N/A
9:55 am 09:55 Sunny 73 22.7 55 12.6 53 53 ENE 17 28 29.83 1010 10 16 N/A
10:15 am 10:15 Sunny 74 23.6 54 12.1 49 49 E 17 28 29.79 1009 10 16 N/A
10:35 am 10:35 Sunny 76 24.2 54 12 47 47 E 17 28 29.77 1008 10 16 N/A
10:55 am 10:55 Sunny 77 24.8 53 11.7 44 44 E 17 28 29.76 1008 10 16 N/A
11:15 am 11:15 Sunny 77 25.1 53 11.8 44 44 E 16 26 29.76 1008 10 16 N/A
11:35 am 11:35 Sunny 80 26.4 54 12.4 42 42 E 13 20 29.76 1008 10 16 N/A
11:55 am 11:55 Sunny 80 26.7 54 12.3 41 41 E 16 26 29.75 1008 10 16 N/A
12:15 pm 12:15 Sunny 81 27.2 54 12.4 40 40 E 12 19 29.75 1007 10 16 N/A
12:35 pm 12:35 Sunny 80 26.6 53 11.7 40 40 E 12 19 29.75 1008 10 16 N/A
12:55 pm 12:55 Sunny 80 26.9 55 12.5 41 41 E 9 15 29.75 1008 10 16 N/A
1:15 pm 13:15 Sunny 82 27.6 56 13.1 41 41 E 8 13 29.74 1007 10 16 N/A
1:35 pm 13:35 Sunny 82 27.9 53 11.6 36 36 E 12 19 29.72 1007 10 16 N/A
1:55 pm 13:55 Sunny 82 27.5 55 12.6 40 40 E 8 13 29.73 1007 10 16 N/A
2:15 pm 14:15 Sunny 82 28 55 12.7 39 39 E 10 17 29.71 1006 10 16 N/A
2:35 pm 14:35 Sunny 82 27.9 54 12.3 38 38 E 8 13 29.70 1006 10 16 N/A
2:55 pm 14:55 Sunny 82 27.6 55 12.9 40 40 E 9 15 29.71 1006 10 16 N/A
3:15 pm 15:15 Sunny 82 28 57 13.7 41 41 E 9 15 29.71 1006 10 16 N/A
3:35 pm 15:35 Sunny 82 27.8 57 14 43 43 E 10 17 29.71 1006 10 16 N/A
3:55 pm 15:55 Sunny 82 27.5 57 14 44 44 E 8 13 29.71 1006 10 16 N/A
4:15 pm 16:15 Sunny 84 28.7 56 13.6 40 40 E 14 22 29.68 1005 10 16 N/A
4:35 pm 16:35 Sunny 83 28.3 57 13.7 41 41 E 15 24 29.66 1004 10 16 N/A
4:55 pm 16:55 Sunny 83 28.6 58 14.7 43 43 E 13 20 29.65 1004 10 16 N/A
5:15 pm 17:15 Sunny 84 28.7 59 14.8 43 43 E 13 20 29.63 1003 10 16 N/A
5:35 pm 17:35 Sunny 84 28.9 60 15.4 44 44 E 12 19 29.62 1003 10 16 N/A
5:55 pm 17:55 Sunny 84 29 61 16.1 46 46 E 14 22 29.60 1002 10 16 N/A
6:15 pm 18:15 Sunny 84 28.7 63 17 49 49 ESE 12 19 29.61 1003 10 16 N/A
6:35 pm 18:35 Sunny 84 28.7 64 17.9 52 52 E 10 17 29.60 1002 10 16 N/A
6:55 pm 18:55 Sunny 83 28.2 65 18.5 56 56 E 6 9 29.60 1002 10 16 N/A
7:15 pm 19:15 Sunny 82 28 66 18.9 58 58 SE 7 11 29.60 1003 10 16 N/A
7:35 pm 19:35 Sunny 82 28 67 19.3 59 59 SE 5 7 29.61 1003 10 16 N/A
7:55 pm 19:55 Partly Cloudy 81 27.2 67 19.5 63 63 N N/A 29.65 1004 10 16 N/A
8:15 pm 20:15 Mostly Cloudy 77 25.1 62 16.7 60 60 NNE 8 13 29.67 1005 10 16 N/A
8:35 pm 20:35 Partly Cloudy with Light Rain 76 24.3 61 16.1 60 60 NNW 8 13 29.68 1005 10 16 N/A
8:55 pm 20:55 Mostly Cloudy with Light Rain 75 24.1 61 16 61 61 N 12 19 29.67 1005 10 16 N/A
9:15 pm 21:15 Partly Cloudy 74 23.1 61 16 64 64 NNE 14 22 29.64 1004 10 16 N/A
9:35 pm 21:35 Clear 73 23 61 16 65 65 NNE 17 28 29.61 1003 10 16 N/A
9:55 pm 21:55 Clear with Nearby Thunderstorms 73 23 60 15.8 64 64 N 12 19 29.59 1002 10 16 N/A
10:15 pm 22:15 Partly Cloudy with Thunderstorms 74 23.1 60 15.5 62 62 N 6 9 29.62 1003 10 16 N/A
10:35 pm 22:35 Mostly Cloudy with Thunderstorms 71 21.9 62 16.4 71 71 W 7 11 29.67 1005 10 16 N/A
10:55 pm 22:55 Cloudy with Thunderstorms 69 20.7 63 17.3 81 81 WSW 25 41 29.74 1007 7 11 0.03 0.76
11:15 pm 23:15 Cloudy with Strong Thunderstorms 67 19.3 65 18.3 94 94 SW 16 26 29.79 1009 3 5 0.16 4.06
11:35 pm 23:35 Cloudy with Thunderstorms 66 19 65 18.1 95 95 N N/A 29.70 1006 5 8 0.31 7.87
11:55 pm 23:55 Cloudy with Thunderstorms 67 19.3 65 18.4 95 95 SSW 3 6 29.64 1004 10 16 0.34 8.64

Powered by AerisWeather